| time (UTC) | temp F | wind direction | speed MPH | gust MPH | rain 1hr in | rain 24hr in | rain mn in | humidity % | barometer mb |
| 20260904042206 | 65 | 164 | 6.0 | 9.0 | 0.00 | 0.00 | 0.00 | 79 | 1017.5 |
| 20260904041706 | 65 | 186 | 5.0 | 10.0 | 0.00 | 0.00 | 0.00 | 79 | 1017.5 |
| 20260904041206 | 65 | 170 | 5.0 | 10.0 | 0.00 | 0.00 | 0.00 | 79 | 1017.6 |
| 20260904040706 | 65 | 200 | 6.0 | 11.0 | 0.00 | 0.00 | 0.00 | 79 | 1017.7 |
| 20260904040206 | 65 | 162 | 7.0 | 11.0 | 0.00 | 0.00 | 0.00 | 79 | 1017.7 |
| 20260904035705 | 65 | 181 | 7.0 | 11.0 | 0.00 | 0.00 | 0.00 | 79 | 1017.7 |
| 20260904035206 | 64 | 215 | 7.0 | 11.0 | 0.00 | 0.00 | 0.00 | 79 | 1017.7 |
| 20260904034705 | 64 | 158 | 6.0 | 10.0 | 0.00 | 0.00 | 0.00 | 79 | 1017.7 |
| 20260904034206 | 64 | 153 | 5.0 | 10.0 | 0.00 | 0.00 | 0.00 | 79 | 1017.7 |
| 20260904033706 | 64 | 184 | 4.0 | 7.0 | 0.00 | 0.00 | 0.00 | 79 | 1017.8 |
| 20260904033206 | 64 | 194 | 4.0 | 7.0 | 0.00 | 0.00 | 0.00 | 79 | 1017.8 |
| 20260904032705 | 64 | 224 | 4.0 | 9.0 | 0.00 | 0.00 | 0.00 | 78 | 1017.8 |
| 20260904032206 | 64 | 192 | 4.0 | 9.0 | 0.00 | 0.00 | 0.00 | 78 | 1017.8 |
| 20260904031706 | 65 | 205 | 5.0 | 10.0 | 0.00 | 0.00 | 0.00 | 78 | 1017.8 |
| 20260904031206 | 65 | 214 | 5.0 | 10.0 | 0.00 | 0.00 | 0.00 | 78 | 1017.7 |
| 20260904030706 | 65 | 221 | 4.0 | 9.0 | 0.00 | 0.00 | 0.00 | 78 | 1017.8 |
| 20260904025705 | 65 | 203 | 4.0 | 8.0 | 0.00 | 0.00 | 0.00 | 77 | 1017.8 |
| 20260904025206 | 65 | 210 | 5.0 | 8.0 | 0.00 | 0.00 | 0.00 | 77 | 1017.8 |
| 20260904024705 | 65 | 208 | 5.0 | 8.0 | 0.00 | 0.00 | 0.00 | 77 | 1017.8 |
| 20260904023206 | 65 | 214 | 5.0 | 10.0 | 0.00 | 0.00 | 0.00 | 77 | 1017.8 |
| 20260904022706 | 65 | 183 | 5.0 | 10.0 | 0.00 | 0.00 | 0.00 | 78 | 1017.8 |
| 20260904022207 | 65 | 174 | 5.0 | 7.0 | 0.00 | 0.00 | 0.00 | 77 | 1017.9 |
| 20260904021706 | 65 | 196 | 4.0 | 7.0 | 0.00 | 0.00 | 0.00 | 77 | 1017.9 |
| 20260904021206 | 65 | 207 | 4.0 | 7.0 | 0.00 | 0.00 | 0.00 | 77 | 1018.1 |
| 20260904020705 | 65 | 184 | 4.0 | 6.0 | 0.00 | 0.00 | 0.00 | 78 | 1018.1 |
| 20260904020206 | 65 | 137 | 3.0 | 7.0 | 0.00 | 0.00 | 0.00 | 78 | 1018.2 |
| 20260904015706 | 65 | 208 | 3.0 | 7.0 | 0.00 | 0.00 | 0.00 | 78 | 1018.1 |
| 20260904015206 | 65 | 178 | 3.0 | 6.0 | 0.00 | 0.00 | 0.00 | 78 | 1018.2 |
| 20260904013705 | 65 | 262 | 1.0 | 2.0 | 0.00 | 0.00 | 0.00 | 77 | 1018.3 |
| 20260904013206 | 65 | 178 | 1.0 | 3.0 | 0.00 | 0.00 | 0.00 | 76 | 1018.4 |
| 20260904012707 | 65 | 72 | 0.0 | 3.0 | 0.00 | 0.00 | 0.00 | 76 | 1018.5 |
| 20260904012206 | 65 | 314 | 0.0 | 3.0 | 0.00 | 0.00 | 0.00 | 76 | 1018.5 |
| 20260904011206 | 66 | 269 | 1.0 | 3.0 | 0.00 | 0.00 | 0.00 | 76 | 1018.6 |
| 20260904010706 | 66 | 314 | 1.0 | 3.0 | 0.00 | 0.00 | 0.00 | 76 | 1018.5 |
| 20260904010234 | 66 | 1 | 1.0 | 3.0 | 0.00 | 0.00 | 0.00 | 76 | 1018.6 |
| 20260904005705 | 66 | 1 | 2.0 | 3.0 | 0.00 | 0.00 | 0.00 | 76 | 1018.6 |
| 20260904005205 | 66 | 144 | 1.0 | 6.0 | 0.00 | 0.00 | 0.00 | 76 | 1018.6 |
| 20260904004706 | 66 | 199 | 2.0 | 6.0 | 0.00 | 0.00 | 0.00 | 76 | 1018.6 |
| 20260904004205 | 66 | 178 | 2.0 | 6.0 | 0.00 | 0.00 | 0.00 | 76 | 1018.6 |
| 20260904003706 | 66 | 295 | 2.0 | 4.0 | 0.00 | 0.00 | 0.00 | 76 | 1018.6 |
| 20260904003206 | 66 | 274 | 2.0 | 4.0 | 0.00 | 0.00 | 0.00 | 75 | 1018.6 |
| 20260904002705 | 66 | 262 | 1.0 | 4.0 | 0.00 | 0.00 | 0.00 | 75 | 1018.6 |
| 20260904001705 | 66 | 279 | 1.0 | 4.0 | 0.00 | 0.00 | 0.00 | 75 | 1018.8 |
| 20260904000705 | 66 | 1 | 1.0 | 2.0 | 0.00 | 0.00 | 0.00 | 75 | 1018.8 |
| 20260904000205 | 66 | 1 | 1.0 | 3.0 | 0.00 | 0.00 | 0.00 | 75 | 1018.8 |
| 20260903235705 | 66 | 89 | 1.0 | 3.0 | 0.00 | 0.00 | 0.00 | 75 | 1019.0 |
| 20260903235205 | 66 | 46 | 1.0 | 3.0 | 0.00 | 0.00 | 0.00 | 75 | 1019.1 |
| 20260903234705 | 66 | 295 | 1.0 | 3.0 | 0.00 | 0.00 | 0.00 | 75 | 1019.2 |
| 20260903234205 | 65 | 1 | 1.0 | 3.0 | 0.00 | 0.00 | 0.00 | 75 | 1019.2 |
| 20260903233705 | 65 | 222 | 1.0 | 3.0 | 0.00 | 0.00 | 0.00 | 75 | 1019.2 |
| 20260903233205 | 65 | 197 | 1.0 | 3.0 | 0.00 | 0.00 | 0.00 | 75 | 1019.5 |
| 20260903232705 | 65 | 178 | 1.0 | 3.0 | 0.00 | 0.00 | 0.00 | 75 | 1019.5 |
| 20260903232206 | 65 | 269 | 1.0 | 3.0 | 0.00 | 0.00 | 0.00 | 75 | 1019.6 |
| 20260903231205 | 65 | 257 | 1.0 | 3.0 | 0.00 | 0.00 | 0.00 | 74 | 1019.6 |
| 20260903230705 | 65 | 277 | 1.0 | 4.0 | 0.00 | 0.00 | 0.00 | 74 | 1019.6 |
| 20260903230231 | 65 | 117 | 1.0 | 4.0 | 0.00 | 0.00 | 0.00 | 74 | 1019.6 |
| 20260903225705 | 65 | 35 | 2.0 | 4.0 | 0.00 | 0.00 | 0.00 | 74 | 1019.6 |
| 20260903225206 | 65 | 56 | 2.0 | 3.0 | 0.00 | 0.00 | 0.00 | 74 | 1019.6 |
| 20260903224705 | 65 | 117 | 1.0 | 4.0 | 0.00 | 0.00 | 0.00 | 74 | 1019.6 |
| 20260903224205 | 65 | 46 | 1.0 | 4.0 | 0.00 | 0.00 | 0.00 | 74 | 1019.7 |
| 20260903223705 | 65 | 89 | 1.0 | 4.0 | 0.00 | 0.00 | 0.00 | 74 | 1019.6 |
| 20260903223205 | 65 | 151 | 1.0 | 2.0 | 0.00 | 0.00 | 0.00 | 74 | 1019.6 |
| 20260903222705 | 65 | 156 | 1.0 | 2.0 | 0.00 | 0.00 | 0.00 | 74 | 1019.7 |
| 20260903221705 | 65 | 240 | 0.0 | 2.0 | 0.00 | 0.00 | 0.00 | 73 | 1019.8 |
| 20260903221205 | 65 | 222 | 0.0 | 2.0 | 0.00 | 0.00 | 0.00 | 73 | 1019.7 |
| 20260903220705 | 65 | 222 | 0.0 | 2.0 | 0.00 | 0.00 | 0.00 | 73 | 1019.7 |
| 20260903220205 | 65 | 46 | 1.0 | 2.0 | 0.00 | 0.00 | 0.00 | 73 | 1019.6 |
| 20260903215705 | 65 | 46 | 1.0 | 2.0 | 0.00 | 0.00 | 0.00 | 73 | 1019.6 |
| 20260903215206 | 66 | 28 | 0.0 | 2.0 | 0.00 | 0.00 | 0.00 | 73 | 1019.6 |
| 20260903214706 | 66 | 20 | 0.0 | 2.0 | 0.00 | 0.00 | 0.00 | 72 | 1019.6 |
| 20260903214206 | 66 | 269 | 0.0 | 2.0 | 0.00 | 0.00 | 0.00 | 72 | 1019.7 |
| 20260903213705 | 66 | 1 | 1.0 | 2.0 | 0.00 | 0.00 | 0.00 | 72 | 1019.6 |
| 20260903213205 | 66 | 20 | 0.0 | 2.0 | 0.00 | 0.00 | 0.00 | 72 | 1019.7 |
| 20260903212706 | 66 | 269 | 1.0 | 2.0 | 0.00 | 0.00 | 0.00 | 72 | 1019.7 |
| 20260903212205 | 66 | 46 | 1.0 | 2.0 | 0.00 | 0.00 | 0.00 | 72 | 1019.5 |
| 20260903211206 | 66 | 89 | 0.0 | 2.0 | 0.00 | 0.00 | 0.00 | 72 | 1019.6 |
| 20260903210705 | 66 | 46 | 0.0 | 3.0 | 0.00 | 0.00 | 0.00 | 71 | 1019.6 |
| 20260903210205 | 66 | 269 | 1.0 | 3.0 | 0.00 | 0.00 | 0.00 | 71 | 1019.7 |
| 20260903205730 | 66 | 1 | 1.0 | 3.0 | 0.00 | 0.00 | 0.00 | 71 | 1019.8 |
| 20260903205206 | 67 | 314 | 1.0 | 3.0 | 0.00 | 0.00 | 0.00 | 71 | 1019.8 |
| 20260903204706 | 67 | 72 | 1.0 | 3.0 | 0.00 | 0.00 | 0.00 | 71 | 1019.7 |
| 20260903204206 | 67 | 117 | 2.0 | 3.0 | 0.00 | 0.00 | 0.00 | 70 | 1019.7 |
| 20260903203727 | 67 | 58 | 1.0 | 3.0 | 0.00 | 0.00 | 0.00 | 69 | 1019.7 |
| 20260903203205 | 67 | 106 | 0.0 | 2.0 | 0.00 | 0.00 | 0.00 | 69 | 1019.7 |
| 20260903202705 | 68 | 331 | 0.0 | 2.0 | 0.00 | 0.00 | 0.00 | 68 | 1019.9 |
| 20260903202231 | 68 | 269 | 1.0 | 2.0 | 0.00 | 0.00 | 0.00 | 68 | 1019.8 |
| 20260903201705 | 68 | 327 | 0.0 | 1.0 | 0.00 | 0.00 | 0.00 | 68 | 1019.7 |
| 20260903201205 | 68 | 269 | 0.0 | 2.0 | 0.00 | 0.00 | 0.00 | 67 | 1019.7 |
| 20260903200705 | 69 | 314 | 0.0 | 3.0 | 0.00 | 0.00 | 0.00 | 67 | 1019.8 |
| 20260903200205 | 69 | 46 | 1.0 | 3.0 | 0.00 | 0.00 | 0.00 | 67 | 1019.8 |
| 20260903195706 | 69 | 240 | 1.0 | 3.0 | 0.00 | 0.00 | 0.00 | 66 | 1019.8 |
| 20260903195206 | 69 | 1 | 2.0 | 4.0 | 0.00 | 0.00 | 0.00 | 66 | 1019.7 |
| 20260903194705 | 69 | 290 | 2.0 | 4.0 | 0.00 | 0.00 | 0.00 | 66 | 1019.7 |
| 20260903194205 | 69 | 331 | 2.0 | 4.0 | 0.00 | 0.00 | 0.00 | 66 | 1019.6 |
| 20260903193706 | 70 | 295 | 2.0 | 4.0 | 0.00 | 0.00 | 0.00 | 66 | 1019.5 |
| 20260903193205 | 70 | 277 | 2.0 | 5.0 | 0.00 | 0.00 | 0.00 | 65 | 1019.5 |
| 20260903192705 | 70 | 217 | 2.0 | 7.0 | 0.00 | 0.00 | 0.00 | 65 | 1019.5 |
| 20260903192206 | 70 | 240 | 3.0 | 8.0 | 0.00 | 0.00 | 0.00 | 64 | 1019.5 |
| 20260903191705 | 70 | 236 | 3.0 | 8.0 | 0.00 | 0.00 | 0.00 | 64 | 1019.6 |
| 20260903191205 | 71 | 269 | 3.0 | 8.0 | 0.00 | 0.00 | 0.00 | 63 | 1019.7 |
| 20260903190705 | 71 | 215 | 3.0 | 7.0 | 0.00 | 0.00 | 0.00 | 62 | 1019.6 |
| 20260903190205 | 71 | 269 | 3.0 | 9.0 | 0.00 | 0.00 | 0.00 | 61 | 1019.6 |
| 20260903185705 | 71 | 272 | 4.0 | 14.0 | 0.00 | 0.00 | 0.00 | 61 | 1019.7 |
| 20260903185206 | 71 | 295 | 6.0 | 15.0 | 0.00 | 0.00 | 0.00 | 61 | 1019.8 |
| 20260903184707 | 71 | 302 | 6.0 | 15.0 | 0.00 | 0.00 | 0.00 | 61 | 1019.8 |
| 20260903184206 | 72 | 255 | 6.0 | 15.0 | 0.00 | 0.00 | 0.00 | 59 | 1019.9 |
| 20260903183705 | 73 | 276 | 5.0 | 15.0 | 0.00 | 0.00 | 0.00 | 58 | 1019.9 |
| 20260903183205 | 73 | 311 | 5.0 | 9.0 | 0.00 | 0.00 | 0.00 | 55 | 1019.7 |
| 20260903182708 | 73 | 276 | 5.0 | 9.0 | 0.00 | 0.00 | 0.00 | 55 | 1019.6 |
| 20260903182205 | 73 | 284 | 4.0 | 10.0 | 0.00 | 0.00 | 0.00 | 54 | 1019.4 |
| 20260903181205 | 73 | 317 | 5.0 | 10.0 | 0.00 | 0.00 | 0.00 | 54 | 1019.0 |
| 20260903180705 | 73 | 236 | 5.0 | 9.0 | 0.00 | 0.00 | 0.00 | 54 | 1018.9 |
| 20260903180231 | 73 | 265 | 5.0 | 9.0 | 0.00 | 0.00 | 0.00 | 54 | 1018.8 |
| 20260903175707 | 73 | 222 | 4.0 | 9.0 | 0.00 | 0.00 | 0.00 | 54 | 1018.8 |
| 20260903175206 | 73 | 236 | 4.0 | 10.0 | 0.00 | 0.00 | 0.00 | 54 | 1018.8 |
| 20260903174706 | 73 | 269 | 4.0 | 10.0 | 0.00 | 0.00 | 0.00 | 54 | 1018.9 |
| 20260903174206 | 73 | 252 | 5.0 | 10.0 | 0.00 | 0.00 | 0.00 | 54 | 1018.8 |
| 20260903173705 | 74 | 221 | 6.0 | 9.0 | 0.00 | 0.00 | 0.00 | 54 | 1018.7 |
| 20260903173205 | 74 | 243 | 5.0 | 10.0 | 0.00 | 0.00 | 0.00 | 54 | 1018.6 |
| 20260903172705 | 74 | 269 | 5.0 | 12.0 | 0.00 | 0.00 | 0.00 | 54 | 1018.6 |
| 20260903172206 | 74 | 233 | 6.0 | 12.0 | 0.00 | 0.00 | 0.00 | 53 | 1018.7 |
| 20260903171705 | 74 | 243 | 6.0 | 12.0 | 0.00 | 0.00 | 0.00 | 53 | 1018.6 |
| 20260903171205 | 74 | 238 | 6.0 | 12.0 | 0.00 | 0.00 | 0.00 | 53 | 1018.6 |
| 20260903170705 | 74 | 219 | 7.0 | 15.0 | 0.00 | 0.00 | 0.00 | 53 | 1018.5 |
| 20260903170208 | 74 | 215 | 8.0 | 15.0 | 0.00 | 0.00 | 0.00 | 53 | 1018.5 |
| 20260903165705 | 74 | 193 | 8.0 | 15.0 | 0.00 | 0.00 | 0.00 | 53 | 1018.5 |
| 20260903165206 | 74 | 253 | 6.0 | 9.0 | 0.00 | 0.00 | 0.00 | 53 | 1018.6 |
| 20260903164705 | 74 | 245 | 5.0 | 8.0 | 0.00 | 0.00 | 0.00 | 53 | 1018.6 |
| 20260903162705 | 74 | 214 | 6.0 | 10.0 | 0.00 | 0.00 | 0.00 | 53 | 1018.7 |
| 20260903162206 | 74 | 217 | 6.0 | 10.0 | 0.00 | 0.00 | 0.00 | 53 | 1018.8 |
| 20260903161705 | 74 | 236 | 6.0 | 10.0 | 0.00 | 0.00 | 0.00 | 53 | 1018.8 |
| 20260903161206 | 74 | 234 | 5.0 | 12.0 | 0.00 | 0.00 | 0.00 | 53 | 1018.7 |
| 20260903160705 | 74 | 271 | 5.0 | 14.0 | 0.00 | 0.00 | 0.00 | 52 | 1018.8 |
| 20260903160206 | 74 | 279 | 6.0 | 15.0 | 0.00 | 0.00 | 0.00 | 52 | 1019.0 |
| 20260903155705 | 74 | 229 | 8.0 | 18.0 | 0.00 | 0.00 | 0.00 | 52 | 1018.9 |
| 20260903155204 | 74 | 276 | 8.0 | 24.0 | 0.00 | 0.00 | 0.00 | 52 | 1019.1 |
| 20260903154705 | 74 | 277 | 11.0 | 24.0 | 0.00 | 0.00 | 0.00 | 52 | 1019.0 |
| 20260903153706 | 74 | 276 | 13.0 | 19.0 | 0.00 | 0.00 | 0.00 | 51 | 1018.9 |
| 20260903153205 | 74 | 234 | 12.0 | 19.0 | 0.00 | 0.00 | 0.00 | 51 | 1019.0 |
| 20260903152705 | 74 | 221 | 10.0 | 19.0 | 0.00 | 0.00 | 0.00 | 51 | 1018.9 |
| 20260903152208 | 75 | 255 | 8.0 | 15.0 | 0.00 | 0.00 | 0.00 | 51 | 1019.0 |
| 20260903151705 | 75 | 257 | 8.0 | 15.0 | 0.00 | 0.00 | 0.00 | 51 | 1019.0 |
| 20260903151205 | 75 | 285 | 8.0 | 22.0 | 0.00 | 0.00 | 0.00 | 51 | 1018.8 |
| 20260903150706 | 75 | 262 | 9.0 | 22.0 | 0.00 | 0.00 | 0.00 | 50 | 1018.9 |
| 20260903145706 | 75 | 248 | 10.0 | 17.0 | 0.00 | 0.00 | 0.00 | 50 | 1018.8 |
| 20260903145206 | 75 | 259 | 10.0 | 17.0 | 0.00 | 0.00 | 0.00 | 50 | 1018.8 |
| 20260903144705 | 75 | 224 | 10.0 | 17.0 | 0.00 | 0.00 | 0.00 | 50 | 1018.7 |
| 20260903144205 | 76 | 274 | 11.0 | 16.0 | 0.00 | 0.00 | 0.00 | 49 | 1018.8 |
| 20260903143707 | 76 | 219 | 9.0 | 15.0 | 0.00 | 0.00 | 0.00 | 49 | 1018.8 |
| 20260903143205 | 76 | 253 | 8.0 | 16.0 | 0.00 | 0.00 | 0.00 | 50 | 1018.8 |
| 20260903142705 | 76 | 257 | 9.0 | 21.0 | 0.00 | 0.00 | 0.00 | 49 | 1018.9 |
| 20260903141705 | 75 | 255 | 12.0 | 21.0 | 0.00 | 0.00 | 0.00 | 49 | 1019.0 |
| 20260903141205 | 75 | 265 | 13.0 | 21.0 | 0.00 | 0.00 | 0.00 | 49 | 1018.8 |
| 20260903140705 | 76 | 253 | 13.0 | 24.0 | 0.00 | 0.00 | 0.00 | 48 | 1018.8 |
| 20260903140205 | 75 | 252 | 13.0 | 24.0 | 0.00 | 0.00 | 0.00 | 50 | 1018.8 |
| 20260903135706 | 75 | 229 | 11.0 | 23.0 | 0.00 | 0.00 | 0.00 | 49 | 1018.9 |
| 20260903135206 | 75 | 269 | 10.0 | 23.0 | 0.00 | 0.00 | 0.00 | 50 | 1018.7 |
| 20260903134706 | 75 | 226 | 10.0 | 18.0 | 0.00 | 0.00 | 0.00 | 49 | 1018.9 |
| 20260903134208 | 74 | 250 | 9.0 | 18.0 | 0.00 | 0.00 | 0.00 | 51 | 1019.1 |
| 20260903133705 | 74 | 243 | 11.0 | 18.0 | 0.00 | 0.00 | 0.00 | 50 | 1019.2 |
| 20260903133205 | 74 | 240 | 10.0 | 17.0 | 0.00 | 0.00 | 0.00 | 50 | 1019.1 |
| 20260903132706 | 74 | 250 | 10.0 | 21.0 | 0.00 | 0.00 | 0.00 | 51 | 1019.2 |
| 20260903132208 | 73 | 222 | 10.0 | 21.0 | 0.00 | 0.00 | 0.00 | 51 | 1019.3 |
| 20260903131205 | 73 | 224 | 11.0 | 19.0 | 0.00 | 0.00 | 0.00 | 51 | 1019.3 |
| 20260903130705 | 73 | 219 | 11.0 | 19.0 | 0.00 | 0.00 | 0.00 | 51 | 1019.4 |
| 20260903130208 | 73 | 229 | 10.0 | 17.0 | 0.00 | 0.00 | 0.00 | 52 | 1019.4 |
| 20260903125705 | 73 | 236 | 9.0 | 17.0 | 0.00 | 0.00 | 0.00 | 52 | 1019.4 |
| 20260903125205 | 73 | 240 | 8.0 | 17.0 | 0.00 | 0.00 | 0.00 | 52 | 1019.4 |
| 20260903124206 | 72 | 210 | 11.0 | 17.0 | 0.00 | 0.00 | 0.00 | 52 | 1019.7 |
| 20260903123205 | 73 | 231 | 9.0 | 18.0 | 0.00 | 0.00 | 0.00 | 52 | 1019.7 |
| 20260903122205 | 73 | 248 | 10.0 | 18.0 | 0.00 | 0.00 | 0.00 | 51 | 1019.6 |
| 20260903121705 | 73 | 214 | 9.0 | 15.0 | 0.00 | 0.00 | 0.00 | 51 | 1019.7 |
| 20260903121206 | 73 | 241 | 8.0 | 15.0 | 0.00 | 0.00 | 0.00 | 51 | 1019.7 |
| 20260903120733 | 73 | 207 | 7.0 | 11.0 | 0.00 | 0.00 | 0.00 | 51 | 1019.6 |
| 20260903120204 | 73 | 258 | 7.0 | 13.0 | 0.00 | 0.00 | 0.00 | 50 | 1019.7 |
| 20260903115706 | 74 | 197 | 8.0 | 16.0 | 0.00 | 0.00 | 0.00 | 50 | 1019.7 |
| 20260903115205 | 74 | 229 | 9.0 | 18.0 | 0.00 | 0.00 | 0.00 | 48 | 1019.8 |
| 20260903114705 | 75 | 250 | 11.0 | 18.0 | 0.00 | 0.00 | 0.00 | 47 | 1019.8 |
| 20260903114205 | 74 | 243 | 11.0 | 18.0 | 0.00 | 0.00 | 0.00 | 48 | 1019.9 |
| 20260903113705 | 74 | 219 | 10.0 | 19.0 | 0.00 | 0.00 | 0.00 | 48 | 1020.0 |
| 20260903113205 | 74 | 239 | 11.0 | 19.0 | 0.00 | 0.00 | 0.00 | 48 | 1020.0 |
| 20260903112705 | 75 | 184 | 11.0 | 19.0 | 0.00 | 0.00 | 0.00 | 48 | 1020.0 |
| 20260903112208 | 73 | 207 | 10.0 | 15.0 | 0.00 | 0.00 | 0.00 | 50 | 1019.9 |
| 20260903111705 | 72 | 229 | 8.0 | 20.0 | 0.00 | 0.00 | 0.00 | 50 | 1020.0 |
| 20260903111205 | 72 | 222 | 9.0 | 20.0 | 0.00 | 0.00 | 0.00 | 51 | 1020.1 |
| 20260903110204 | 73 | 258 | 11.0 | 20.0 | 0.00 | 0.00 | 0.00 | 49 | 1020.0 |
| 20260903105705 | 73 | 234 | 10.0 | 20.0 | 0.00 | 0.00 | 0.00 | 50 | 1020.2 |
| 20260903105205 | 73 | 226 | 11.0 | 19.0 | 0.00 | 0.00 | 0.00 | 49 | 1020.2 |
| 20260903104705 | 73 | 210 | 10.0 | 16.0 | 0.00 | 0.00 | 0.00 | 50 | 1020.2 |
| 20260903104205 | 73 | 212 | 9.0 | 14.0 | 0.00 | 0.00 | 0.00 | 50 | 1020.5 |
| 20260903103705 | 73 | 239 | 8.0 | 12.0 | 0.00 | 0.00 | 0.00 | 52 | 1020.4 |
| 20260903103205 | 72 | 231 | 7.0 | 15.0 | 0.00 | 0.00 | 0.00 | 52 | 1020.5 |
| 20260903102705 | 71 | 205 | 8.0 | 17.0 | 0.00 | 0.00 | 0.00 | 54 | 1020.6 |
| 20260903102205 | 70 | 258 | 8.0 | 17.0 | 0.00 | 0.00 | 0.00 | 55 | 1020.8 |
| 20260903101705 | 70 | 255 | 9.0 | 17.0 | 0.00 | 0.00 | 0.00 | 54 | 1020.8 |
| 20260903101206 | 70 | 248 | 9.0 | 16.0 | 0.00 | 0.00 | 0.00 | 53 | 1020.8 |
| 20260903100705 | 71 | 271 | 7.0 | 12.0 | 0.00 | 0.00 | 0.00 | 54 | 1020.9 |
| 20260903095705 | 71 | 250 | 7.0 | 18.0 | 0.00 | 0.00 | 0.00 | 55 | 1021.1 |
| 20260903095206 | 71 | 264 | 9.0 | 18.0 | 0.00 | 0.00 | 0.00 | 56 | 1020.9 |
| 20260903094704 | 71 | 243 | 9.0 | 15.0 | 0.00 | 0.00 | 0.00 | 54 | 1020.9 |
| 20260903093705 | 71 | 194 | 7.0 | 14.0 | 0.00 | 0.00 | 0.00 | 55 | 1020.9 |
| 20260903093206 | 70 | 203 | 6.0 | 12.0 | 0.00 | 0.00 | 0.00 | 60 | 1020.9 |
| 20260903091206 | 66 | 276 | 5.0 | 10.0 | 0.00 | 0.00 | 0.00 | 64 | 1021.4 |
| 20260903090705 | 66 | 215 | 5.0 | 8.0 | 0.00 | 0.00 | 0.00 | 66 | 1021.2 |
| 20260903090205 | 65 | 220 | 4.0 | 7.0 | 0.00 | 0.00 | 0.00 | 66 | 1021.2 |
| 20260903085706 | 65 | 229 | 4.0 | 7.0 | 0.00 | 0.00 | 0.00 | 65 | 1021.3 |
| 20260903085206 | 65 | 240 | 4.0 | 7.0 | 0.00 | 0.00 | 0.00 | 66 | 1021.1 |
| 20260903084705 | 65 | 219 | 4.0 | 7.0 | 0.00 | 0.00 | 0.00 | 67 | 1020.9 |
| 20260903084206 | 65 | 196 | 3.0 | 6.0 | 0.00 | 0.00 | 0.00 | 67 | 1021.1 |
| 20260903083705 | 64 | 250 | 2.0 | 6.0 | 0.00 | 0.00 | 0.00 | 68 | 1020.9 |
| 20260903083205 | 64 | 252 | 3.0 | 6.0 | 0.00 | 0.00 | 0.00 | 69 | 1021.1 |
| 20260903082206 | 63 | 205 | 3.0 | 5.0 | 0.00 | 0.00 | 0.00 | 70 | 1020.9 |
| 20260903081705 | 63 | 302 | 3.0 | 5.0 | 0.00 | 0.00 | 0.00 | 71 | 1020.9 |
| 20260903081206 | 62 | 236 | 3.0 | 6.0 | 0.00 | 0.00 | 0.00 | 71 | 1020.9 |
| 20260903080705 | 62 | 236 | 3.0 | 6.0 | 0.00 | 0.00 | 0.00 | 72 | 1021.1 |
| 20260903075206 | 61 | 264 | 3.0 | 7.0 | 0.00 | 0.00 | 0.00 | 73 | 1021.3 |
| 20260903074706 | 61 | 250 | 3.0 | 7.0 | 0.00 | 0.00 | 0.00 | 73 | 1021.3 |
| 20260903074206 | 61 | 245 | 2.0 | 4.0 | 0.00 | 0.00 | 0.00 | 73 | 1021.1 |
| 20260903073705 | 61 | 233 | 2.0 | 4.0 | 0.00 | 0.00 | 0.00 | 74 | 1021.1 |
| 20260903073205 | 61 | 269 | 2.0 | 4.0 | 0.00 | 0.00 | 0.00 | 75 | 1020.9 |
| 20260903072705 | 60 | 260 | 2.0 | 3.0 | 0.00 | 0.00 | 0.00 | 75 | 1020.8 |
| 20260903072205 | 60 | 135 | 2.0 | 4.0 | 0.00 | 0.00 | 0.00 | 75 | 1020.9 |
| 20260903071705 | 60 | 222 | 2.0 | 4.0 | 0.00 | 0.00 | 0.00 | 77 | 1020.8 |
| 20260903071205 | 59 | 240 | 2.0 | 4.0 | 0.00 | 0.00 | 0.00 | 80 | 1020.8 |
| 20260903070705 | 58 | 212 | 2.0 | 3.0 | 0.00 | 0.00 | 0.00 | 83 | 1020.9 |
| 20260903070205 | 58 | 250 | 1.0 | 3.0 | 0.00 | 0.00 | 0.00 | 85 | 1021.4 |
| 20260903065706 | 57 | 295 | 1.0 | 4.0 | 0.00 | 0.00 | 0.00 | 87 | 1021.5 |
| 20260903065205 | 56 | 15 | 2.0 | 4.0 | 0.00 | 0.00 | 0.00 | 89 | 1021.4 |
| 20260903064705 | 55 | 201 | 3.0 | 4.0 | 0.00 | 0.00 | 0.00 | 90 | 1021.4 |
| 20260903064205 | 55 | 231 | 2.0 | 4.0 | 0.00 | 0.00 | 0.00 | 90 | 1021.5 |
| 20260903063706 | 54 | 233 | 1.0 | 3.0 | 0.00 | 0.00 | 0.00 | 89 | 1021.6 |
| 20260903063205 | 54 | 306 | 1.0 | 2.0 | 0.00 | 0.00 | 0.00 | 89 | 1021.5 |
| 20260903062706 | 53 | 46 | 1.0 | 2.0 | 0.00 | 0.00 | 0.00 | 89 | 1021.2 |
| 20260903062206 | 53 | 222 | 1.0 | 2.0 | 0.00 | 0.00 | 0.00 | 89 | 1020.9 |
| 20260903061705 | 53 | 222 | 1.0 | 2.0 | 0.00 | 0.00 | 0.00 | 89 | 1020.8 |
| 20260903061205 | 53 | 1 | 0.0 | 1.0 | 0.00 | 0.00 | 0.00 | 88 | 1021.1 |
| 20260903060706 | 52 | 269 | 0.0 | 2.0 | 0.00 | 0.00 | 0.00 | 88 | 1020.9 |
| 20260903060205 | 52 | 222 | 0.0 | 2.0 | 0.00 | 0.00 | 0.00 | 88 | 1020.9 |
| 20260903055705 | 52 | 46 | 1.0 | 2.0 | 0.00 | 0.00 | 0.00 | 87 | 1021.1 |
| 20260903055205 | 52 | 222 | 1.0 | 4.0 | 0.00 | 0.00 | 0.00 | 87 | 1021.1 |
| 20260903054705 | 52 | 269 | 1.0 | 4.0 | 0.00 | 0.00 | 0.00 | 87 | 1021.1 |
| 20260903054205 | 51 | 269 | 2.0 | 4.0 | 0.00 | 0.00 | 0.00 | 87 | 1020.9 |
| 20260903053705 | 51 | 70 | 2.0 | 3.0 | 0.00 | 0.00 | 0.00 | 86 | 1020.8 |
| 20260903053206 | 51 | 89 | 2.0 | 2.0 | 0.00 | 0.00 | 0.00 | 86 | 1021.2 |
| 20260903052705 | 51 | 89 | 1.0 | 2.0 | 0.00 | 0.00 | 0.00 | 86 | 1021.3 |
| 20260903052204 | 51 | 108 | 1.0 | 2.0 | 0.00 | 0.00 | 0.00 | 86 | 1021.3 |
| 20260903051705 | 51 | 89 | 1.0 | 2.0 | 0.00 | 0.00 | 0.00 | 86 | 1021.1 |
| 20260903051205 | 51 | 89 | 0.0 | 2.0 | 0.00 | 0.00 | 0.00 | 86 | 1021.2 |
| 20260903050705 | 51 | 63 | 0.0 | 1.0 | 0.00 | 0.00 | 0.00 | 86 | 1021.3 |
| 20260903045706 | 51 | 1 | 0.0 | 1.0 | 0.00 | 0.00 | 0.00 | 85 | 1021.1 |
| 20260903045205 | 52 | 1 | 0.0 | 1.0 | 0.00 | 0.00 | 0.00 | 85 | 1020.9 |
| 20260903044205 | 52 | 46 | 0.0 | 2.0 | 0.00 | 0.00 | 0.00 | 85 | 1020.8 |
| 20260903043706 | 52 | 1 | 1.0 | 2.0 | 0.00 | 0.00 | 0.00 | 85 | 1020.7 |
| 20260903043205 | 52 | 178 | 1.0 | 2.0 | 0.00 | 0.00 | 0.00 | 85 | 1020.6 |
| 20260903042706 | 52 | 89 | 1.0 | 2.0 | 0.00 | 0.00 | 0.00 | 85 | 1020.7 |